Regional Weather Roundup
Issued by NWS Little Rock, AR

Home | Current Version | Previous Version | Text Only | Print | Product List | Glossary On
Versions: 1 2 3 4 5 6 7 8 9 10 11 12 13 14 15 16 17 18 19 20 21 22 23 24 25 26 27 28 29 30 31 32 33 34 35 36 37 38 39 40 41 42 43 44 45 46 47 48 49 50
000
ASUS44 KLZK 202305
RWRLZK

WEATHER ROUNDUP FOR ARKANSAS
NATIONAL WEATHER SERVICE LITTLE ROCK AR
500 PM CST THU NOV 20 2014

NOTE: "FAIR" INDICATES FEW OR NO CLOUDS BELOW 12,000 FEET WITH NO
SIGNIFICANT WEATHER AND/OR OBSTRUCTIONS TO VISIBILITY.

ARZ001-003-010-029-210000-
NORTHWEST ARKANSAS

CITY           SKY/WX    TMP DP  RH WIND       PRES   REMARKS
FAYETTEVILLE   CLEAR     50  34  54 S8        30.08R
FORT SMITH     CLOUDY    52  32  46 E9        30.09R
HARRISON       CLEAR     48  25  40 E8        30.11S
BENTONVILLE    CLEAR     54  27  35 E7        30.09R
ROGERS         CLEAR     49  25  39 NE9       30.09R
SILOAM SPGS    CLEAR     52  34  50 S6        30.09R
HIGHFILL       CLEAR     54  31  41 CALM      30.07R
SPRINGDALE     CLEAR     55  36  47 SE7       30.09R
$$

ARZ004-005-016-210000-
NORTH CENTRAL ARKANSAS

CITY           SKY/WX    TMP DP  RH WIND       PRES   REMARKS
BATESVILLE     MOCLDY    46  23  39 E8        30.18S
FLIPPIN        CLEAR     48  21  34 E6        30.14S
MTN HOME       CLEAR     47  23  38 E6        30.13S
$$

ARZ040-041-210000-
WEST CENTRAL ARKANSAS

CITY           SKY/WX    TMP DP  RH WIND       PRES   REMARKS
MENA           CLOUDY    57  45  62 CALM      30.09S
MOUNT IDA      PTCLDY    53  42  66 SE5       30.10R
$$

ARZ009-017-025-026-028-210000-
NORTHEAST ARKANSAS

CITY           SKY/WX    TMP DP  RH WIND       PRES   REMARKS
CORNING        FAIR      45  28  53 E5        30.23R
JONESBORO      CLOUDY    46  27  47 E7        30.21R
NEWPORT        CLOUDY    47  32  56 E5        30.21S HAZE
WALNUT RIDGE   CLOUDY    45  27  49 NE7       30.20R
BLYTHEVILLE    MOCLDY    44  26  49 NE8       30.22S
$$

ARZ022-023-033-042-044-210000-
CENTRAL ARKANSAS

CITY           SKY/WX    TMP DP  RH WIND       PRES   REMARKS
LITTLE ROCK    PTCLDY    52  32  46 SE7       30.17S
N LITTLE ROCK  PTCLDY    51  36  55 SE7       30.17S
JACKSONVILLE   PTCLDY    52  32  46 E5        30.16S
SEARCY         PTCLDY    49  28  44 E5        30.19S
HOT SPRINGS    PTCLDY    53  41  63 E5        30.14S
RUSSELLVILLE   CLEAR     53  31  42 E5        30.12F
CLINTON        FAIR      48  32  53 CALM      30.17R
$$

ARZ036-210000-
EAST ARKANSAS

CITY           SKY/WX    TMP DP  RH WIND       PRES   REMARKS
WEST MEMPHIS   CLOUDY    51  28  41 E3        30.19R
$$

ARZ050-053-066-070-073-210000-
SOUTHWEST ARKANSAS

CITY           SKY/WX    TMP DP  RH WIND       PRES   REMARKS
ARKADELPHIA    FAIR      51  47  86 SE3       30.15F
CAMDEN         MOCLDY    54  46  76 CALM      30.15S HAZE
TEXARKANA      MOCLDY    53  49  86 E7        30.11R FOG
EL DORADO      LGT RAIN  58  52  80 E6        30.14R
DE QUEEN       MOCLDY    54  46  74 E7        30.08F
$$

ARZ056-057-069-210000-
SOUTHEAST ARKANSAS

CITY           SKY/WX    TMP DP  RH WIND       PRES   REMARKS
PINE BLUFF     PTCLDY    50  41  71 E7        30.17S
STUTTGART      CLEAR     52  36  54 CALM      30.19S
MONTICELLO     CLOUDY    54  48  80 NE3       30.17S

$$





USA.gov is the U.S. government's official web portal to all federal, state and local government web resources and services.